KD5FHA Weather Reports


Display with metric or nautical units.
time (UTC)temp
F
wind
direction
speed
MPH
gust
MPH
rain 1hr
in
rain 24hr
in
rain mn
in
humidity
%
barometer
mb
20260510064734 73 18 3.0 7.0 0.00 0.00 0.00 80 1012.0
20260510064232 73 9 5.0 6.0 0.00 0.00 0.00 79 1011.7
20260510063728 73 13 3.0 3.0 0.00 0.00 0.00 79 1011.1
20260510063224 73 200 2.0 4.0 0.00 0.00 0.00 78 1010.3
20260510062721 73 136 0.0 5.0 0.00 0.00 0.00 77 1010.2
20260510062217 74 190 3.0 7.0 0.00 0.00 0.00 77 1010.2
20260510061712 74 183 3.0 6.0 0.00 0.00 0.00 76 1010.3
20260510061210 74 201 4.0 6.0 0.00 0.00 0.00 76 1010.2
20260510060706 74 142 1.0 4.0 0.00 0.00 0.00 76 1010.3
20260510060203 74 147 2.0 5.0 0.00 0.00 0.00 76 1010.2
20260510055659 74 115 1.0 2.0 0.00 0.00 0.00 75 1010.3
20260510055157 74 109 0.0 2.0 0.00 0.00 0.00 74 1010.1
20260510054652 74 136 0.0 2.0 0.00 0.00 0.00 74 1010.3
20260510054148 74 137 0.0 2.0 0.00 0.00 0.00 74 1010.1
20260510053647 74 161 2.0 2.0 0.00 0.00 0.00 73 1010.0
20260510053144 74 110 0.0 2.0 0.00 0.00 0.00 72 1009.8
20260510052640 74 129 1.0 3.0 0.00 0.00 0.00 72 1009.8
20260510052136 74 102 2.0 4.0 0.00 0.00 0.00 71 1009.8
20260510051632 74 142 0.0 1.0 0.00 0.00 0.00 70 1009.9
20260510051129 74 139 0.0 1.0 0.00 0.00 0.00 70 1009.8
20260510050626 74 89 0.0 0.0 0.00 0.00 0.00 69 1009.6
20260510050123 75 78 0.0 1.0 0.00 0.00 0.00 68 1009.6
20260510045620 75 86 1.0 2.0 0.00 0.00 0.00 68 1009.5
20260510045117 75 129 0.0 2.0 0.00 0.00 0.00 68 1009.6
20260510044613 75 118 2.0 2.0 0.00 0.00 0.00 67 1009.8
20260510044110 75 121 0.0 2.0 0.00 0.00 0.00 67 1009.6
20260510043606 75 105 1.0 2.0 0.00 0.00 0.00 67 1009.9
20260510043102 75 92 1.0 1.0 0.00 0.00 0.00 67 1009.9
20260510042601 75 98 0.0 2.0 0.00 0.00 0.00 66 1010.0
20260510042056 76 89 1.0 1.0 0.00 0.00 0.00 66 1009.9
20260510041553 76 93 2.0 2.0 0.00 0.00 0.00 65 1010.1
20260510041051 76 129 0.0 2.0 0.00 0.00 0.00 64 1010.1
20260510040548 76 128 1.0 2.0 0.00 0.00 0.00 64 1010.0
20260510040043 76 78 0.0 2.0 0.00 0.00 0.00 63 1010.0
20260510035540 77 124 0.0 2.0 0.00 0.00 0.00 63 1010.0
20260510035039 77 85 2.0 2.0 0.00 0.00 0.00 63 1010.0
20260510034538 77 98 1.0 2.0 0.00 0.00 0.00 63 1010.1
20260510034035 77 126 0.0 2.0 0.00 0.00 0.00 62 1010.0
20260510033530 77 72 0.0 1.0 0.00 0.00 0.00 62 1010.2
20260510033029 77 60 1.0 1.0 0.00 0.00 0.00 62 1010.2
20260510032525 77 53 0.0 1.0 0.00 0.00 0.00 62 1010.4
20260510032020 78 115 1.0 2.0 0.00 0.00 0.00 62 1010.1
20260510031516 78 102 0.0 1.0 0.00 0.00 0.00 63 1010.1
20260510031012 78 38 0.0 1.0 0.00 0.00 0.00 63 1010.2
20260510030507 78 110 0.0 2.0 0.00 0.00 0.00 63 1010.1
20260510030005 78 89 0.0 1.0 0.00 0.00 0.00 64 1010.1
20260510025502 78 68 0.0 0.0 0.00 0.00 0.00 65 1010.0
20260510024959 78 89 0.0 0.0 0.00 0.00 0.00 64 1009.9
20260510024456 79 75 0.0 1.0 0.00 0.00 0.00 63 1009.9
20260510023952 79 99 0.0 1.0 0.00 0.00 0.00 63 1009.9
20260510023448 79 89 0.0 1.0 0.00 0.00 0.00 63 1010.0
20260510022945 80 111 0.0 2.0 0.00 0.00 0.00 63 1009.9
20260510022444 80 126 0.0 2.0 0.00 0.00 0.00 63 1009.8
20260510021943 80 105 0.0 1.0 0.00 0.00 0.00 63 1009.4
20260510021441 80 103 0.0 1.0 0.00 0.00 0.00 64 1009.6
20260510020938 80 117 0.0 1.0 0.00 0.00 0.00 65 1009.5
20260510020432 81 75 0.0 1.0 0.00 0.00 0.00 65 1009.1
20260510015928 81 89 0.0 0.0 0.00 0.00 0.00 65 1009.3
20260510015425 81 66 0.0 0.0 0.00 0.00 0.00 64 1009.3
20260510014920 82 75 0.0 0.0 0.00 0.00 0.00 63 1009.1
20260510014418 82 69 0.0 1.0 0.00 0.00 0.00 63 1009.2
20260510013914 82 89 0.0 1.0 0.00 0.00 0.00 62 1009.1
20260510013409 83 71 1.0 2.0 0.00 0.00 0.00 62 1009.1
20260510012904 83 104 0.0 1.0 0.00 0.00 0.00 60 1009.1
20260510012359 84 80 0.0 1.0 0.00 0.00 0.00 59 1009.0
20260510011854 84 89 0.0 2.0 0.00 0.00 0.00 56 1008.7
20260510011349 85 89 0.0 2.0 0.00 0.00 0.00 53 1008.8
20260510010846 85 151 0.0 1.0 0.00 0.00 0.00 52 1008.7
20260510010344 85 63 0.0 1.0 0.00 0.00 0.00 49 1008.6
20260510005840 86 182 0.0 1.0 0.00 0.00 0.00 49 1008.6
20260510005336 86 150 0.0 2.0 0.00 0.00 0.00 47 1008.8
20260510004834 87 164 0.0 2.0 0.00 0.00 0.00 45 1008.6
20260510004331 88 174 0.0 2.0 0.00 0.00 0.00 45 1008.5
20260510003829 88 240 0.0 0.0 0.00 0.00 0.00 47 1008.4
20260510003326 88 205 0.0 1.0 0.00 0.00 0.00 46 1008.6
20260510002824 89 217 0.0 0.0 0.00 0.00 0.00 44 1008.5
20260510002322 90 301 0.0 0.0 0.00 0.00 0.00 43 1008.5
20260510001818 91 334 2.0 2.0 0.00 0.00 0.00 42 1008.7
20260510001317 91 304 0.0 1.0 0.00 0.00 0.00 43 1008.4
20260510000812 90 242 0.0 1.0 0.00 0.00 0.00 42 1008.5
20260510000311 91 89 0.0 2.0 0.00 0.00 0.00 42 1008.5
20260509235807 92 22 0.0 2.0 0.00 0.00 0.00 42 1008.4
20260509235306 91 283 0.0 1.0 0.00 0.00 0.00 42 1008.3
20260509234759 93 293 0.0 1.0 0.00 0.00 0.00 42 1008.4
20260509234256 93 309 0.0 2.0 0.00 0.00 0.00 44 1008.7
20260509233754 91 255 0.0 2.0 0.00 0.00 0.00 43 1008.6
20260509233252 90 149 0.0 2.0 0.00 0.00 0.00 43 1008.5
20260509232747 91 62 0.0 1.0 0.00 0.00 0.00 42 1008.6
20260509232245 92 123 1.0 1.0 0.00 0.00 0.00 41 1008.4
20260509231741 92 44 0.0 0.0 0.00 0.00 0.00 42 1008.7
20260509231238 93 8 0.0 2.0 0.00 0.00 0.00 42 1008.7
20260509230736 94 51 2.0 2.0 0.00 0.00 0.00 40 1008.6
20260509230233 93 284 0.0 2.0 0.00 0.00 0.00 42 1008.7
20260509225727 93 233 0.0 2.0 0.00 0.00 0.00 42 1008.8
20260509225224 93 22 0.0 2.0 0.00 0.00 0.00 41 1008.7
20260509224719 93 337 0.0 2.0 0.00 0.00 0.00 41 1008.5
20260509224217 93 269 0.0 1.0 0.00 0.00 0.00 42 1008.5
20260509223714 94 0 0.0 1.0 0.00 0.00 0.00 41 1008.7
20260509223211 93 224 0.0 2.0 0.00 0.00 0.00 42 1008.6
20260509222708 93 246 0.0 2.0 0.00 0.00 0.00 42 1008.6
20260509222203 93 44 4.0 4.0 0.00 0.00 0.00 40 1008.6
20260509221654 95 44 0.0 1.0 0.00 0.00 0.00 39 1008.5
20260509221149 95 342 0.0 3.0 0.00 0.00 0.00 40 1008.5
20260509220645 93 250 1.0 2.0 0.00 0.00 0.00 41 1008.4
20260509220141 93 53 2.0 2.0 0.00 0.00 0.00 40 1008.7
20260509215638 93 316 1.0 1.0 0.00 0.00 0.00 41 1008.7
20260509215134 93 19 0.0 2.0 0.00 0.00 0.00 41 1008.7
20260509214632 93 279 1.0 2.0 0.00 0.00 0.00 41 1008.8
20260509214128 93 9 0.0 4.0 0.00 0.00 0.00 41 1008.8
20260509213625 92 29 0.0 2.0 0.00 0.00 0.00 42 1008.7
20260509213115 93 145 2.0 2.0 0.00 0.00 0.00 41 1009.0
20260509212613 93 326 0.0 3.0 0.00 0.00 0.00 41 1008.9
20260509212109 95 310 0.0 3.0 0.00 0.00 0.00 41 1009.1
20260509211605 92 0 2.0 4.0 0.00 0.00 0.00 41 1009.2
20260509211102 91 197 3.0 7.0 0.00 0.00 0.00 42 1009.0
20260509210559 94 240 3.0 3.0 0.00 0.00 0.00 39 1009.0
20260509210056 94 204 2.0 2.0 0.00 0.00 0.00 39 1009.2
20260509205550 94 251 0.0 1.0 0.00 0.00 0.00 41 1009.2
20260509205045 91 201 1.0 5.0 0.00 0.00 0.00 42 1009.3
20260509204542 91 205 2.0 4.0 0.00 0.00 0.00 40 1009.3
20260509204038 93 268 0.0 2.0 0.00 0.00 0.00 40 1009.5
20260509203534 91 228 0.0 5.0 0.00 0.00 0.00 42 1009.5
20260509203033 94 230 1.0 2.0 0.00 0.00 0.00 39 1009.5
20260509202532 94 190 1.0 2.0 0.00 0.00 0.00 38 1009.6
20260509202028 93 202 2.0 4.0 0.00 0.00 0.00 40 1009.8
20260509201523 92 211 1.0 5.0 0.00 0.00 0.00 41 1009.8
20260509201021 93 251 0.0 2.0 0.00 0.00 0.00 40 1010.0
20260509200521 90 322 1.0 4.0 0.00 0.00 0.00 42 1009.8
20260509200019 92 357 4.0 5.0 0.00 0.00 0.00 40 1009.9
20260509195514 91 353 2.0 4.0 0.00 0.00 0.00 41 1010.2
20260509195013 90 352 0.0 5.0 0.00 0.00 0.00 42 1010.2
20260509194509 90 14 2.0 4.0 0.00 0.00 0.00 41 1010.1
20260509194007 91 286 1.0 6.0 0.00 0.00 0.00 40 1010.3
20260509193506 91 267 1.0 5.0 0.00 0.00 0.00 39 1010.2
20260509193003 92 343 0.0 3.0 0.00 0.00 0.00 42 1010.2
20260509192459 90 296 1.0 2.0 0.00 0.00 0.00 41 1010.3
20260509191954 90 349 2.0 2.0 0.00 0.00 0.00 41 1010.2
20260509191450 89 72 1.0 10.0 0.00 0.00 0.00 43 1010.2
20260509190945 89 2 6.0 9.0 0.00 0.00 0.00 45 1010.3
20260509190443 90 20 1.0 4.0 0.00 0.00 0.00 46 1010.4
20260509185941 91 6 3.0 3.0 0.00 0.00 0.00 45 1010.4
20260509185438 90 5 2.0 3.0 0.00 0.00 0.00 46 1010.5
20260509184935 89 262 2.0 3.0 0.00 0.00 0.00 45 1010.6
20260509184433 88 1 2.0 4.0 0.00 0.00 0.00 47 1010.6
20260509183929 88 356 4.0 4.0 0.00 0.00 0.00 47 1010.6
20260509183428 89 356 2.0 3.0 0.00 0.00 0.00 46 1010.7
20260509182925 88 7 2.0 5.0 0.00 0.00 0.00 47 1010.7
20260509182422 90 9 4.0 8.0 0.00 0.00 0.00 47 1010.7
20260509181919 89 293 2.0 5.0 0.00 0.00 0.00 46 1010.7
20260509181417 88 330 3.0 5.0 0.00 0.00 0.00 47 1010.8
20260509180914 88 339 4.0 5.0 0.00 0.00 0.00 47 1010.8
20260509180409 87 318 4.0 5.0 0.00 0.00 0.00 48 1011.0
20260509175907 87 281 2.0 5.0 0.00 0.00 0.00 49 1011.0
20260509175403 86 11 4.0 6.0 0.00 0.00 0.00 50 1011.1
20260509174859 85 3 3.0 9.0 0.00 0.00 0.00 51 1011.1
20260509174355 85 358 2.0 5.0 0.00 0.00 0.00 51 1011.2
20260509173851 86 291 4.0 4.0 0.00 0.00 0.00 50 1011.5
20260509173346 85 284 4.0 7.0 0.00 0.00 0.00 50 1011.2
20260509172843 84 343 3.0 5.0 0.00 0.00 0.00 52 1011.3
20260509172340 86 21 5.0 7.0 0.00 0.00 0.00 50 1011.2
20260509171836 86 301 2.0 6.0 0.00 0.00 0.00 49 1011.4
20260509171332 85 301 3.0 6.0 0.00 0.00 0.00 49 1011.5
20260509170828 85 350 2.0 6.0 0.00 0.00 0.00 51 1011.4
20260509170324 86 15 4.0 5.0 0.00 0.00 0.00 50 1011.4
20260509165824 85 317 4.0 5.0 0.00 0.00 0.00 50 1011.6
20260509165318 85 240 3.0 7.0 0.00 0.00 0.00 51 1011.7
20260509164815 83 1 5.0 6.0 0.00 0.00 0.00 54 1011.7
20260509164311 84 358 2.0 9.0 0.00 0.00 0.00 54 1011.7
20260509163808 84 341 4.0 7.0 0.00 0.00 0.00 54 1011.6
20260509163305 85 328 2.0 4.0 0.00 0.00 0.00 53 1011.8
20260509162804 83 260 4.0 6.0 0.00 0.00 0.00 52 1011.6
20260509162306 82 349 5.0 10.0 0.00 0.00 0.00 54 1011.5
20260509161759 83 1 5.0 6.0 0.00 0.00 0.00 54 1011.4
20260509161255 83 11 2.0 5.0 0.00 0.00 0.00 55 1011.5
20260509160750 83 359 6.0 7.0 0.00 0.00 0.00 53 1011.6
20260509160247 82 280 2.0 7.0 0.00 0.00 0.00 54 1011.6
20260509155742 82 326 2.0 7.0 0.00 0.00 0.00 54 1011.4
20260509155239 82 306 2.0 8.0 0.00 0.00 0.00 53 1011.4
20260509154735 82 4 3.0 7.0 0.00 0.00 0.00 53 1011.4
20260509154232 82 297 2.0 4.0 0.00 0.00 0.00 55 1011.6
20260509153730 81 34 5.0 8.0 0.00 0.00 0.00 56 1011.7
20260509153225 82 312 3.0 5.0 0.00 0.00 0.00 58 1011.4
20260509152722 81 336 2.0 6.0 0.00 0.00 0.00 57 1011.5
20260509152219 80 347 3.0 6.0 0.00 0.00 0.00 59 1011.4
20260509151715 80 35 2.0 5.0 0.00 0.00 0.00 62 1011.4
20260509151212 80 10 5.0 6.0 0.00 0.00 0.00 62 1011.2
20260509150710 80 14 3.0 3.0 0.00 0.00 0.00 65 1011.2
20260509150208 79 35 5.0 5.0 0.00 0.00 0.00 66 1011.3
20260509145704 79 295 3.0 4.0 0.00 0.00 0.00 67 1011.3
20260509145200 78 294 2.0 5.0 0.00 0.00 0.00 69 1011.4
20260509144656 78 262 2.0 4.0 0.00 0.00 0.00 70 1011.5
20260509144154 78 72 2.0 3.0 0.00 0.00 0.00 71 1011.5
20260509143651 77 343 2.0 4.0 0.00 0.00 0.00 72 1011.6
20260509143148 76 37 3.0 6.0 0.00 0.00 0.00 72 1011.6
20260509142643 76 318 4.0 5.0 0.00 0.00 0.00 74 1011.8
20260509142141 75 313 4.0 5.0 0.00 0.00 0.00 75 1011.7
20260509141636 75 325 3.0 4.0 0.00 0.00 0.00 76 1011.8
20260509141132 74 288 1.0 3.0 0.00 0.00 0.00 77 1011.7
20260509140630 74 292 2.0 5.0 0.00 0.00 0.00 77 1011.5
20260509140128 73 293 7.0 8.0 0.00 0.00 0.00 78 1011.5
20260509135624 74 16 1.0 4.0 0.00 0.00 0.00 78 1011.4
20260509135123 73 308 3.0 4.0 0.00 0.00 0.00 78 1011.4
20260509134619 73 32 3.0 5.0 0.00 0.00 0.00 79 1011.5
20260509134117 73 266 3.0 8.0 0.00 0.00 0.00 79 1011.4
20260509133614 73 19 1.0 4.0 0.00 0.00 0.00 80 1011.3
20260509133111 73 338 2.0 4.0 0.00 0.00 0.00 80 1011.3
20260509132609 73 273 1.0 5.0 0.00 0.00 0.00 80 1011.3
20260509132107 72 290 2.0 6.0 0.00 0.00 0.00 81 1011.1
20260509131603 71 322 0.0 4.0 0.00 0.00 0.00 83 1011.1
20260509131100 71 273 2.0 5.0 0.00 0.00 0.00 83 1011.1
20260509130555 71 289 4.0 7.0 0.00 0.00 0.00 83 1011.2
20260509130053 71 29 6.0 6.0 0.00 0.00 0.00 84 1011.1
20260509125549 70 134 0.0 3.0 0.00 0.00 0.00 85 1011.1
20260509125046 70 315 3.0 4.0 0.00 0.00 0.00 86 1011.0
20260509124542 69 62 0.0 3.0 0.00 0.00 0.00 87 1011.0
20260509124039 69 83 1.0 2.0 0.00 0.00 0.00 88 1011.0
20260509123537 68 226 0.0 3.0 0.00 0.00 0.00 90 1010.9
20260509123033 68 180 2.0 2.0 0.00 0.00 0.00 93 1011.0
20260509122530 68 198 0.0 2.0 0.00 0.00 0.00 94 1011.0
20260509122027 68 64 0.0 2.0 0.00 0.00 0.00 94 1011.0
20260509121523 68 199 0.0 2.0 0.00 0.00 0.00 94 1010.9
20260509121021 68 58 0.0 2.0 0.00 0.00 0.00 93 1010.7
20260509120519 68 124 0.0 1.0 0.00 0.00 0.00 93 1010.7
20260509120017 68 336 0.0 2.0 0.00 0.00 0.00 93 1010.7
20260509115514 69 4 1.0 2.0 0.00 0.00 0.00 92 1010.8
20260509115012 69 11 0.0 1.0 0.00 0.00 0.00 91 1010.8
20260509114510 69 199 1.0 2.0 0.00 0.00 0.00 91 1010.6
20260509114009 70 89 0.0 2.0 0.00 0.00 0.00 91 1010.8
20260509113506 70 161 1.0 3.0 0.00 0.00 0.00 90 1010.7
20260509113004 70 22 0.0 2.0 0.00 0.00 0.00 90 1010.6
20260509112500 70 189 3.0 6.0 0.00 0.00 0.00 90 1010.4
20260509111956 71 138 1.0 2.0 0.00 0.00 0.00 88 1010.6
20260509111454 71 220 0.0 1.0 0.00 0.00 0.00 87 1010.6
20260509110951 71 79 0.0 1.0 0.00 0.00 0.00 87 1010.6
20260509110447 72 42 1.0 1.0 0.00 0.00 0.00 86 1010.5
20260509105945 72 303 0.0 3.0 0.00 0.00 0.00 86 1010.7
20260509105443 72 259 2.0 3.0 0.00 0.00 0.00 87 1010.6
20260509104940 71 293 1.0 4.0 0.00 0.00 0.00 88 1010.5
20260509104437 71 251 0.0 2.0 0.00 0.00 0.00 90 1010.4
20260509103934 71 51 1.0 3.0 0.00 0.00 0.00 90 1010.4
20260509103432 71 78 1.0 3.0 0.00 0.00 0.00 91 1010.5
20260509102930 71 56 2.0 3.0 0.00 0.00 0.00 91 1010.3
20260509102427 71 12 5.0 8.0 0.00 0.00 0.00 92 1010.2
20260509101923 71 331 3.0 6.0 0.00 0.00 0.00 92 1010.3
20260509101419 71 8 5.0 6.0 0.00 0.00 0.00 93 1010.0
20260509100917 70 321 4.0 9.0 0.00 0.00 0.00 93 1010.0
20260509100414 70 206 3.0 11.0 0.00 0.00 0.00 93 1008.7
20260509095910 70 196 8.0 14.0 0.00 0.00 0.00 93 1008.6
20260509095408 70 195 7.0 9.0 0.00 0.00 0.00 93 1008.1
20260509094905 70 202 12.0 13.0 0.00 0.00 0.00 93 1007.6
20260509094401 70 190 4.0 9.0 0.00 0.00 0.00 93 1007.8
20260509093859 70 155 11.0 11.0 0.00 0.00 0.00 93 1007.9
20260509093356 70 164 2.0 12.0 0.00 0.00 0.00 93 1007.7
20260509092855 70 174 4.0 12.0 0.00 0.00 0.00 93 1007.9
20260509092352 70 188 7.0 13.0 0.00 0.00 0.00 93 1007.9
20260509091850 70 189 11.0 16.0 0.00 0.00 0.00 93 1008.1
20260509091346 70 134 4.0 13.0 0.00 0.00 0.00 93 1007.9
20260509090844 70 209 13.0 15.0 0.00 0.00 0.00 93 1008.1
20260509090341 70 203 9.0 12.0 0.00 0.00 0.00 93 1008.0
20260509085838 70 180 5.0 16.0 0.00 0.00 0.00 93 1008.0
20260509085335 70 189 4.0 13.0 0.00 0.00 0.00 93 1008.3
20260509084832 70 183 9.0 15.0 0.00 0.00 0.00 93 1008.3
20260509084329 69 178 3.0 12.0 0.00 0.00 0.00 93 1008.4
20260509083827 69 174 6.0 12.0 0.00 0.00 0.00 94 1008.7
20260509083323 69 197 8.0 11.0 0.00 0.00 0.00 94 1008.8
20260509082820 69 180 3.0 8.0 0.00 0.00 0.00 94 1009.3
20260509082316 69 211 6.0 8.0 0.00 0.00 0.00 94 1009.4
20260509081814 69 181 7.0 7.0 0.00 0.00 0.00 94 1009.8
20260509081310 69 165 2.0 4.0 0.00 0.00 0.00 94 1009.6
20260509080809 69 162 1.0 6.0 0.00 0.00 0.00 94 1010.3
20260509080306 69 183 2.0 5.0 0.00 0.00 0.00 93 1010.6
20260509075804 69 200 6.0 6.0 0.00 0.00 0.00 93 1010.8
20260509075301 69 203 4.0 6.0 0.00 0.00 0.00 93 1010.9
20260509074758 69 214 6.0 8.0 0.00 0.00 0.00 94 1011.2
20260509074256 69 192 4.0 9.0 0.00 0.00 0.00 94 1011.5
20260509073752 69 194 6.0 10.0 0.00 0.00 0.00 94 1011.6
20260509073248 69 191 6.0 7.0 0.00 0.00 0.00 94 1012.1
20260509072745 69 243 0.0 1.0 0.00 0.00 0.00 95 1012.3
20260509072242 69 69 0.0 2.0 0.00 0.00 0.00 94 1012.1
20260509071738 69 230 0.0 1.0 0.00 0.00 0.00 94 1012.1
20260509071236 69 218 0.0 0.0 0.00 0.00 0.00 94 1012.1
20260509070733 69 224 0.0 0.0 0.00 0.00 0.00 94 1012.1
20260509070229 69 169 0.0 1.0 0.00 0.00 0.00 94 1012.3
20260509065726 70 301 0.0 1.0 0.00 0.00 0.00 94 1012.3
20260509065222 70 186 0.0 0.0 0.00 0.00 0.00 94 1012.3